TimeEST,TemperatureF,Dew PointF,Humidity,Sea Level PressureIn,VisibilityMPH,Wind Direction,Wind SpeedMPH,Gust SpeedMPH,PrecipitationIn,Events,Conditions,WindDirDegrees,DateUTC
12:53 AM,51.1,39.9,66,30.16,10.0,NW,8.1,19.6,N/A,,Clear,320,2013-03-04 05:53:00
1:53 AM,48.9,37.9,66,30.16,10.0,NW,8.1,-,N/A,,Clear,310,2013-03-04 06:53:00
2:53 AM,48.0,39.0,71,30.14,10.0,NNW,4.6,-,N/A,,Clear,330,2013-03-04 07:53:00
3:53 AM,46.9,37.9,71,30.14,10.0,NNW,8.1,16.1,N/A,,Clear,340,2013-03-04 08:53:00
4:53 AM,46.9,37.9,71,30.17,10.0,NNW,5.8,-,N/A,,Clear,340,2013-03-04 09:53:00
5:53 AM,46.0,37.0,71,30.19,10.0,Variable,3.5,-,N/A,,Clear,0,2013-03-04 10:53:00
6:53 AM,46.0,37.0,71,30.20,10.0,Variable,3.5,-,N/A,,Clear,0,2013-03-04 11:53:00
7:53 AM,48.0,37.0,66,30.22,10.0,North,9.2,-,N/A,,Clear,360,2013-03-04 12:53:00
8:53 AM,52.0,36.0,54,30.23,10.0,North,8.1,-,N/A,,Clear,360,2013-03-04 13:53:00
9:53 AM,55.0,36.0,49,30.23,10.0,Variable,4.6,-,N/A,,Clear,0,2013-03-04 14:53:00
10:53 AM,57.0,36.0,45,30.24,10.0,Variable,3.5,-,N/A,,Clear,0,2013-03-04 15:53:00
11:53 AM,61.0,34.0,36,30.22,10.0,NNW,8.1,-,N/A,,Clear,340,2013-03-04 16:53:00
12:53 PM,63.0,32.0,31,30.18,10.0,Variable,4.6,-,N/A,,Clear,0,2013-03-04 17:53:00
1:53 PM,64.9,30.9,28,30.17,10.0,East,6.9,-,N/A,,Clear,90,2013-03-04 18:53:00
2:53 PM,66.9,32.0,27,30.15,10.0,NW,3.5,-,N/A,,Clear,310,2013-03-04 19:53:00
3:53 PM,69.1,32.0,25,30.13,10.0,Variable,3.5,-,N/A,,Clear,0,2013-03-04 20:53:00
4:53 PM,68.0,30.9,25,30.14,10.0,Variable,3.5,-,N/A,,Clear,0,2013-03-04 21:53:00
5:53 PM,64.9,37.9,37,30.15,10.0,ENE,5.8,-,N/A,,Clear,70,2013-03-04 22:53:00
6:53 PM,63.0,39.0,41,30.16,10.0,ENE,5.8,-,N/A,,Clear,60,2013-03-04 23:53:00
7:53 PM,61.0,42.1,50,30.18,10.0,NE,3.5,-,N/A,,Clear,50,2013-03-05 00:53:00
8:53 PM,61.0,43.0,52,30.19,10.0,Calm,Calm,-,N/A,,Clear,0,2013-03-05 01:53:00
9:53 PM,57.0,43.0,59,30.21,10.0,Calm,Calm,-,N/A,,Clear,0,2013-03-05 02:53:00
10:53 PM,57.9,43.0,58,30.20,10.0,Calm,Calm,-,N/A,,Clear,0,2013-03-05 03:53:00
11:53 PM,57.0,45.0,64,30.19,10.0,WNW,3.5,-,N/A,,Clear,300,2013-03-05 04:53:00